Wind_Speed
26 27 28 29 29 30 30 31 32 32 33 34 34 35 35 36 36 37 38 39 40 41 42 43 43 44 45 45 46 46 47 47 47 48 48 48 47 47 47 47 47 46 46
27 28 29 30 31 31 32 32 33 33 34 34 35 35 36 36 37 38 39 40 41 42 43 44 45 46 47 47 48 49 50 50 51 51 51 52 52 52 51 51 51 51 50
29 30 30 31 32 32 33 33 34 34 34 35 35 36 36 37 38 39 39 41 42 43 44 45 46 47 48 49 49 50 51 52 52 53 53 53 54 54 54 55 55 54 54
31 32 32 33 33 33 34 34 34 34 35 35 35 36 36 37 38 39 39 40 41 43 44 45 46 47 48 49 50 51 52 52 53 54 54 55 55 56 56 56 57 57 57
32 32 33 33 33 34 34 34 35 35 36 36 36 36 37 37 38 39 40 41 42 43 44 45 46 47 48 50 51 52 53 54 54 55 56 57 57 58 58 58 59 59 59
32 33 33 33 33 34 34 34 34 34 35 36 36 36 37 38 39 40 40 41 43 44 45 46 47 49 50 51 52 54 55 56 57 57 58 59 59 60 60 61 61 61 61
33 33 33 33 33 33 33 34 34 35 36 36 36 36 37 38 39 40 41 42 43 45 46 47 48 50 52 53 54 56 57 58 59 60 61 62 62 63 63 64 64 64 65
33 33 33 33 33 34 35 35 36 36 38 39 39 38 37 38 40 41 42 44 46 47 49 51 52 54 55 56 58 59 61 62 63 64 64 65 66 66 67 67 67 67 68
34 34 34 34 35 36 37 38 38 39 39 40 41 42 42 41 42 42 45 47 49 51 53 55 56 58 59 61 62 63 65 66 67 68 69 70 70 70 71 71 71 71 71
35 35 36 36 37 37 38 39 40 41 41 43 44 46 48 48 48 47 47 49 52 54 56 58 60 61 63 64 65 66 68 69 70 71 73 74 74 75 75 76 76 76 76
37 37 38 39 39 40 41 41 43 44 45 46 48 50 51 53 55 56 54 53 55 56 59 61 62 64 66 68 69 70 71 72 73 74 75 77 78 79 80 80 81 81 81
39 39 40 41 41 42 43 44 46 47 49 50 51 53 54 56 58 60 61 60 59 60 61 63 65 67 69 70 72 73 74 75 76 77 78 79 80 81 83 83 84 85 85
40 41 42 43 44 45 46 47 49 50 51 53 54 56 57 59 61 63 64 65 65 64 65 65 67 69 70 72 73 75 77 78 79 80 81 82 83 84 85 86 87 87 88
42 43 44 45 46 47 49 50 51 52 53 55 57 58 59 61 63 65 67 69 69 68 68 68 69 70 72 74 76 77 79 80 81 82 83 84 84 85 86 86 87 88 89
44 45 46 47 48 49 50 51 52 54 56 57 58 60 61 63 65 67 69 71 73 73 71 71 72 74 75 77 78 79 80 81 82 83 84 84 84 85 85 86 86 87 87
46 47 48 48 49 51 52 53 55 56 57 59 60 62 63 65 67 68 70 72 74 76 76 75 76 78 79 80 80 81 81 81 82 82 82 82 82 82 82 82 81 81 81
48 49 49 50 51 53 54 56 57 58 59 60 62 63 65 67 68 70 72 73 75 77 79 77 79 80 82 82 82 82 82 82 81 80 79 78 77 76 75 74 72 71 71
49 50 51 52 53 55 56 57 58 59 60 62 63 65 67 68 70 72 74 75 77 79 81 80 79 81 82 83 83 82 81 80 77 75 73 71 69 68 66 65 63 63 62
51 52 53 54 55 56 57 58 60 60 62 63 65 67 69 71 72 74 76 77 79 81 82 83 81 81 82 82 81 79 77 74 71 68 66 64 61 60 58 57 56 55 55
53 54 55 56 57 58 59 60 61 62 63 66 68 69 71 73 75 77 78 80 81 82 83 83 82 81 80 77 76 73 70 66 64 61 59 56 54 52 51 50 50 50 50
54 55 56 57 58 59 60 61 63 64 66 68 70 72 74 76 78 79 81 81 82 82 82 81 80 77 73 70 67 65 62 58 56 54 52 50 49 47 46 47 47 46 46
55 56 57 58 59 61 62 64 66 67 69 70 72 74 76 78 80 81 82 82 82 81 80 77 74 70 65 62 59 57 54 52 49 47 47 45 45 44 44 44 44 44 44
56 57 58 59 61 62 64 66 68 70 71 73 75 78 79 80 81 81 80 79 78 77 74 71 66 61 58 55 53 50 49 47 44 42 42 40 41 41 42 42 42 42 42
57 58 59 61 62 64 67 69 70 72 74 76 78 80 81 80 80 80 79 76 73 69 66 63 59 55 52 49 48 46 44 42 40 38 39 37 37 39 40 40 41 40 41
58 59 61 63 65 67 69 71 74 75 77 78 80 80 80 80 79 77 75 71 66 61 58 56 53 50 48 46 45 43 41 40 37 36 37 37 36 37 36 37 38 39 39
59 60 62 65 67 69 72 74 77 78 79 79 79 78 78 77 74 71 68 64 60 55 53 50 48 46 44 43 42 41 39 38 36 35 35 36 35 35 34 35 37 37 37
Wind_Direction
285 285 283 282 281 280 278 277 276 274 273 273 272 272 272 271 270 270 269 269 269 268 268 268 267 267 267 267 267 267 267 267 268 268 268 268 268 269 269 269 270 271 271
286 285 284 283 282 281 280 278 277 276 275 274 274 273 272 272 271 271 270 270 269 269 268 268 268 268 267 267 267 267 267 268 268 268 268 268 268 268 269 269 269 269 269
287 286 284 283 282 281 280 279 278 277 276 275 275 274 273 273 272 271 271 271 270 270 270 270 269 269 269 269 269 268 268 268 268 268 268 268 268 268 268 268 269 269 269
287 286 285 283 282 281 280 279 278 277 276 275 274 274 274 273 273 273 273 273 273 273 273 273 272 272 272 271 271 270 270 269 269 269 269 268 268 268 268 268 268 268 268
287 286 285 284 282 281 280 279 278 277 276 275 275 274 274 274 274 274 274 274 274 274 274 274 274 274 274 273 273 272 272 271 270 270 269 269 269 268 268 268 267 267 267
288 287 285 283 282 281 280 279 279 278 277 276 276 275 275 275 275 275 276 276 276 276 276 276 276 276 275 275 274 274 273 273 272 271 271 270 270 269 268 268 267 267 267
288 287 286 284 282 281 281 280 280 279 278 277 277 276 277 277 277 277 277 277 277 277 277 277 277 277 277 277 276 276 275 274 273 273 272 271 270 270 269 268 268 267 267
288 287 285 283 282 282 282 281 281 281 280 279 279 277 276 277 279 280 280 280 280 279 279 279 279 278 278 278 277 277 276 275 275 274 273 272 271 270 270 269 268 267 267
289 287 285 283 283 283 283 282 282 282 282 282 281 280 278 276 274 276 279 280 281 281 281 281 280 280 279 278 278 277 277 276 276 275 274 273 272 271 270 269 268 268 267
289 286 284 283 283 283 283 283 283 283 283 283 283 283 283 282 279 276 276 279 280 281 281 281 281 281 280 279 278 278 277 277 276 275 275 274 273 272 271 270 269 268 267
288 286 285 284 284 284 284 284 284 284 284 284 284 285 285 285 285 283 281 280 281 282 282 282 282 282 281 280 280 279 278 277 276 275 275 274 274 273 272 271 269 268 267
289 287 286 285 285 285 285 285 285 285 286 286 286 286 286 287 287 286 286 285 284 283 284 284 284 283 283 282 281 280 279 278 277 276 276 275 274 273 272 271 270 269 268
290 288 287 286 286 286 286 286 287 287 287 288 288 289 289 289 289 288 288 287 286 286 286 286 286 285 284 284 283 282 281 280 279 278 277 276 275 273 272 271 270 269 268
291 289 288 287 287 287 287 287 288 288 289 290 290 290 290 291 291 291 290 290 289 288 288 288 288 288 287 286 285 284 283 282 281 280 279 277 276 275 273 272 271 269 268
291 290 289 289 288 288 288 289 289 290 290 291 291 292 292 292 292 292 292 292 291 290 289 289 289 289 288 288 287 286 285 284 283 282 280 279 277 276 274 273 271 270 268
292 291 290 290 289 289 289 290 290 291 292 292 292 292 293 293 293 294 293 293 293 293 292 292 291 291 291 290 289 288 287 286 285 283 282 280 279 277 276 274 273 271 269
293 292 292 291 291 291 291 291 292 292 293 293 293 294 295 295 295 295 295 295 295 295 294 293 293 293 292 292 291 290 289 287 286 284 283 281 280 278 277 275 273 271 269
293 293 292 292 292 292 292 293 293 294 294 295 296 296 296 296 297 297 297 297 297 296 296 295 294 294 294 293 292 290 289 288 286 284 283 281 280 278 276 274 272 270 268
293 293 293 293 293 293 294 294 295 296 296 297 297 298 298 298 298 298 298 298 298 297 297 297 296 295 294 293 291 290 288 286 285 283 282 280 278 276 274 272 270 269 268
294 294 294 295 295 295 296 296 297 298 298 299 300 300 300 300 300 300 299 299 298 298 298 297 297 296 294 292 290 289 287 285 284 283 281 279 276 274 272 270 268 267 267
295 295 296 296 297 297 298 298 299 300 300 301 301 301 302 302 302 301 300 300 299 299 298 298 297 295 294 291 289 287 286 284 283 281 279 277 275 273 271 269 268 267 266
296 297 297 298 299 299 300 301 301 302 302 303 303 303 303 303 302 302 301 301 301 300 299 298 297 295 293 290 288 287 285 283 281 279 277 275 274 273 271 269 268 268 267
297 298 298 299 300 301 302 302 303 304 304 305 305 305 304 304 303 302 301 301 300 300 299 298 296 295 293 290 288 286 284 283 281 278 275 272 272 271 271 271 271 270 268
297 299 300 301 301 302 303 304 304 305 306 306 306 306 305 304 303 302 301 301 300 299 297 296 295 294 292 290 288 286 284 282 280 278 275 273 270 270 271 272 271 270 269
299 300 301 302 303 303 304 305 305 306 306 307 307 306 306 305 304 303 301 300 299 297 295 294 294 293 291 289 288 286 285 283 280 277 276 274 272 271 271 270 270 270 270
300 301 302 303 304 305 305 306 306 307 307 307 308 307 306 306 304 302 301 300 298 296 294 293 292 291 290 288 287 286 285 283 280 278 276 275 274 272 270 269 269 269 269
Height
5828 5826 5825 5823 5821 5820 5818 5817 5816 5814 5813 5812 5811 5809 5808 5808 5807 5806 5805 5804 5803 5802 5801 5801 5800 5800 5799 5799 5798 5798 5797 5797 5797 5796 5796 5796 5796 5796 5796 5795 5795 5795 5795
5823 5821 5819 5817 5815 5813 5812 5810 5809 5807 5806 5804 5803 5802 5801 5799 5798 5797 5796 5794 5793 5792 5791 5790 5790 5789 5789 5788 5787 5787 5786 5786 5786 5785 5785 5785 5785 5785 5785 5785 5784 5784 5784
5817 5815 5813 5811 5809 5807 5805 5803 5801 5800 5798 5797 5795 5794 5793 5791 5790 5788 5787 5785 5784 5782 5781 5780 5779 5778 5777 5777 5776 5775 5775 5774 5774 5773 5773 5773 5772 5772 5772 5772 5772 5773 5773
5810 5808 5806 5804 5802 5800 5798 5796 5794 5792 5790 5789 5787 5786 5784 5783 5781 5779 5777 5776 5774 5773 5771 5770 5769 5767 5766 5765 5764 5764 5763 5762 5762 5761 5760 5760 5760 5759 5759 5759 5759 5760 5760
5803 5801 5798 5796 5794 5792 5790 5788 5786 5784 5783 5781 5779 5778 5776 5774 5772 5770 5769 5767 5765 5763 5761 5759 5758 5756 5755 5754 5752 5751 5750 5749 5748 5748 5747 5747 5746 5746 5746 5746 5746 5746 5746
5796 5793 5791 5789 5786 5784 5782 5780 5778 5776 5774 5772 5771 5769 5768 5765 5763 5761 5759 5757 5755 5753 5751 5749 5747 5745 5743 5741 5740 5738 5737 5736 5735 5734 5733 5733 5732 5732 5732 5732 5732 5732 5732
5788 5786 5783 5781 5779 5776 5774 5772 5770 5768 5765 5764 5763 5761 5759 5756 5754 5752 5749 5747 5745 5742 5740 5738 5736 5733 5731 5729 5727 5725 5723 5721 5720 5719 5718 5717 5717 5717 5716 5716 5717 5717 5717
5780 5778 5775 5773 5771 5768 5766 5764 5762 5759 5756 5754 5753 5752 5751 5749 5745 5742 5739 5736 5734 5731 5728 5726 5723 5721 5718 5715 5713 5710 5708 5706 5705 5703 5702 5701 5700 5700 5700 5700 5700 5700 5700
5773 5770 5767 5765 5762 5760 5757 5755 5752 5750 5747 5744 5741 5740 5739 5739 5737 5735 5730 5726 5722 5719 5716 5713 5710 5707 5703 5701 5698 5695 5692 5690 5688 5686 5684 5683 5682 5682 5681 5681 5681 5682 5682
5764 5762 5759 5756 5754 5751 5748 5745 5743 5740 5738 5735 5731 5728 5725 5723 5721 5722 5722 5717 5712 5708 5703 5699 5695 5691 5687 5684 5681 5679 5676 5673 5670 5668 5665 5664 5662 5661 5661 5661 5661 5661 5662
5756 5753 5750 5747 5744 5742 5739 5736 5733 5730 5727 5724 5720 5717 5713 5709 5705 5703 5704 5703 5699 5694 5689 5685 5680 5675 5670 5666 5663 5660 5657 5654 5652 5649 5646 5643 5641 5640 5639 5638 5639 5639 5640
5747 5744 5741 5737 5734 5731 5728 5725 5722 5718 5715 5711 5708 5704 5700 5696 5692 5687 5684 5684 5682 5679 5674 5669 5663 5657 5652 5648 5644 5640 5637 5633 5630 5628 5625 5622 5619 5617 5615 5614 5614 5615 5615
5737 5734 5731 5727 5724 5721 5717 5714 5710 5707 5703 5699 5695 5690 5686 5681 5676 5671 5667 5664 5662 5661 5657 5652 5645 5638 5632 5627 5623 5618 5615 5611 5607 5604 5601 5598 5596 5593 5591 5590 5589 5589 5589
5727 5724 5720 5717 5713 5709 5706 5702 5698 5694 5690 5686 5681 5676 5672 5666 5660 5655 5649 5644 5641 5641 5637 5633 5625 5618 5612 5606 5601 5595 5591 5587 5583 5579 5576 5573 5570 5567 5565 5563 5562 5561 5562
5717 5713 5709 5705 5701 5698 5694 5690 5686 5681 5677 5672 5667 5662 5657 5651 5645 5639 5632 5626 5620 5617 5617 5613 5605 5598 5590 5584 5578 5572 5567 5561 5557 5552 5549 5545 5542 5539 5537 5535 5534 5534 5534
5706 5702 5698 5694 5689 5685 5681 5677 5672 5668 5663 5658 5652 5647 5641 5635 5628 5622 5615 5608 5601 5595 5592 5591 5582 5574 5566 5560 5553 5547 5541 5536 5531 5526 5521 5518 5515 5512 5509 5508 5507 5506 5507
5694 5690 5686 5681 5677 5672 5668 5663 5659 5654 5648 5643 5637 5631 5624 5617 5611 5604 5597 5590 5582 5574 5569 5569 5560 5550 5542 5534 5528 5521 5515 5509 5504 5499 5495 5491 5488 5486 5484 5482 5482 5481 5481
5682 5678 5673 5669 5664 5659 5654 5649 5644 5639 5633 5627 5621 5614 5607 5600 5593 5585 5577 5570 5562 5553 5546 5543 5539 5529 5519 5510 5503 5496 5490 5484 5479 5475 5471 5468 5465 5463 5461 5460 5459 5459 5460
5669 5665 5660 5655 5650 5645 5640 5634 5629 5623 5617 5611 5604 5597 5589 5581 5574 5566 5557 5549 5540 5532 5523 5517 5514 5506 5496 5486 5478 5472 5466 5461 5456 5452 5449 5446 5444 5442 5441 5440 5440 5441 5441
5657 5652 5646 5641 5636 5630 5625 5619 5614 5608 5601 5594 5586 5578 5570 5562 5554 5545 5537 5528 5518 5510 5501 5493 5487 5481 5472 5463 5454 5449 5445 5440 5436 5432 5429 5427 5426 5425 5424 5424 5424 5424 5424
5643 5638 5632 5627 5621 5615 5609 5603 5598 5591 5584 5577 5569 5560 5551 5542 5532 5523 5514 5505 5495 5486 5478 5469 5462 5456 5449 5441 5434 5428 5425 5422 5419 5415 5412 5410 5409 5409 5408 5408 5408 5408 5409
5630 5624 5618 5612 5606 5600 5593 5587 5580 5574 5566 5558 5550 5541 5531 5521 5510 5500 5490 5481 5471 5462 5454 5446 5439 5433 5428 5420 5415 5410 5406 5404 5403 5401 5397 5397 5394 5395 5393 5393 5393 5394 5395
5616 5610 5604 5598 5591 5584 5577 5570 5563 5555 5548 5539 5529 5520 5510 5499 5488 5478 5469 5460 5450 5439 5430 5423 5418 5413 5408 5403 5398 5395 5391 5388 5387 5385 5383 5384 5382 5381 5380 5380 5380 5380 5381
5602 5596 5590 5583 5576 5569 5561 5553 5545 5537 5529 5519 5508 5497 5487 5477 5465 5455 5447 5439 5430 5421 5411 5405 5400 5396 5391 5387 5382 5379 5376 5374 5374 5372 5369 5370 5370 5369 5368 5367 5366 5367 5367
5588 5582 5575 5567 5560 5553 5544 5535 5526 5518 5510 5500 5488 5476 5464 5455 5445 5433 5425 5418 5412 5404 5396 5389 5385 5380 5376 5372 5368 5365 5363 5361 5361 5360 5358 5357 5357 5357 5357 5356 5354 5354 5354
5574 5567 5560 5552 5544 5535 5526 5516 5506 5498 5490 5481 5470 5457 5444 5433 5423 5413 5404 5398 5393 5388 5382 5377 5372 5367 5363 5359 5356 5353 5350 5348 5348 5348 5347 5345 5345 5344 5345 5344 5343 5342 5342